| time (UTC) | temp C | wind direction | speed KPH | gust KPH | rain 1hr cm | rain 24hr cm | rain mn cm | humidity % | barometer mb |
| 20260509055021 | 33 | 338 | 0.0 | 0.0 | 0.00 | 0.74 | 0.08 | 68 | 1004.1 |
| 20260509054521 | 33 | 345 | 0.0 | 0.0 | 0.00 | 0.74 | 0.08 | 68 | 1004.1 |
| 20260509054020 | 33 | 338 | 0.0 | 0.0 | 0.00 | 0.74 | 0.08 | 70 | 1004.3 |
| 20260509053521 | 33 | 338 | 0.0 | 0.0 | 0.00 | 0.74 | 0.08 | 69 | 1004.3 |
| 20260509052521 | 33 | 45 | 0.0 | 0.0 | 0.00 | 0.74 | 0.08 | 69 | 1004.3 |
| 20260509052021 | 34 | 45 | 0.0 | 0.0 | 0.00 | 0.74 | 0.08 | 67 | 1004.3 |
| 20260509051521 | 34 | 45 | 0.0 | 0.0 | 0.00 | 0.74 | 0.08 | 66 | 1004.4 |
| 20260509050522 | 32 | 48 | 0.0 | 0.0 | 0.00 | 0.74 | 0.08 | 71 | 1004.3 |
| 20260509045521 | 32 | 45 | 0.0 | 0.0 | 0.00 | 0.74 | 0.08 | 72 | 1004.3 |
| 20260509045020 | 32 | 45 | 0.0 | 0.0 | 0.00 | 0.74 | 0.08 | 73 | 1004.3 |
| 20260509044521 | 32 | 45 | 0.0 | 0.0 | 0.00 | 0.74 | 0.08 | 75 | 1004.3 |
| 20260509044021 | 32 | 46 | 0.0 | 0.0 | 0.00 | 0.74 | 0.08 | 73 | 1004.3 |
| 20260509043521 | 32 | 90 | 0.0 | 0.0 | 0.00 | 0.74 | 0.08 | 75 | 1004.3 |
| 20260509043020 | 31 | 90 | 0.0 | 0.0 | 0.00 | 0.74 | 0.08 | 74 | 1004.3 |
| 20260509042521 | 32 | 68 | 0.0 | 0.0 | 0.00 | 0.74 | 0.08 | 73 | 1004.3 |
| 20260509042020 | 32 | 68 | 0.0 | 0.0 | 0.00 | 0.74 | 0.08 | 72 | 1004.2 |
| 20260509041521 | 32 | 68 | 0.0 | 0.0 | 0.00 | 0.74 | 0.08 | 73 | 1004.1 |
| 20260509041020 | 31 | 58 | 0.0 | 0.0 | 0.00 | 0.74 | 0.08 | 77 | 1004.1 |
| 20260509040521 | 31 | 45 | 0.0 | 0.0 | 0.00 | 0.74 | 0.08 | 80 | 1004.0 |
| 20260509040020 | 31 | 45 | 0.0 | 0.0 | 0.00 | 0.74 | 0.08 | 81 | 1004.0 |
| 20260509035521 | 30 | 45 | 0.0 | 0.0 | 0.00 | 0.74 | 0.08 | 84 | 1003.8 |
| 20260509034521 | 30 | 45 | 0.0 | 0.0 | 0.00 | 0.74 | 0.08 | 84 | 1003.8 |
| 20260509034021 | 30 | 45 | 0.0 | 0.0 | 0.00 | 0.74 | 0.08 | 88 | 1003.7 |
| 20260509033521 | 29 | 45 | 0.0 | 0.0 | 0.00 | 0.74 | 0.08 | 90 | 1003.7 |
| 20260509033021 | 28 | 45 | 0.0 | 0.0 | 0.00 | 0.74 | 0.08 | 90 | 1003.4 |
| 20260509032521 | 28 | 45 | 0.0 | 0.0 | 0.00 | 0.74 | 0.08 | 92 | 1003.4 |
| 20260509031520 | 28 | 45 | 0.0 | 0.0 | 0.00 | 0.74 | 0.08 | 94 | 1003.3 |
| 20260509031020 | 27 | 45 | 0.0 | 0.0 | 0.00 | 0.74 | 0.08 | 94 | 1003.3 |
| 20260509030521 | 27 | 22 | 0.0 | 0.0 | 0.00 | 0.74 | 0.08 | 95 | 1003.3 |
| 20260509030021 | 27 | 0 | 0.0 | 0.0 | 0.00 | 0.74 | 0.08 | 96 | 1003.3 |
| 20260509025521 | 27 | 0 | 0.0 | 0.0 | 0.00 | 0.74 | 0.08 | 96 | 1003.2 |
| 20260509025021 | 27 | 315 | 0.0 | 0.0 | 0.00 | 0.74 | 0.08 | 97 | 1003.2 |
| 20260509024521 | 27 | 315 | 0.0 | 0.0 | 0.00 | 0.74 | 0.08 | 98 | 1003.2 |
| 20260509024020 | 27 | 315 | 0.0 | 0.0 | 0.00 | 0.74 | 0.08 | 98 | 1003.2 |
| 20260509023521 | 27 | 315 | 0.0 | 0.0 | 0.00 | 0.74 | 0.08 | 99 | 1003.2 |
| 20260509023021 | 27 | 315 | 0.0 | 0.0 | 0.00 | 0.74 | 0.08 | 97 | 1003.2 |
| 20260509022020 | 26 | 315 | 0.0 | 0.0 | 0.00 | 0.74 | 0.08 | 99 | 1003.0 |
| 20260509021521 | 26 | 315 | 0.0 | 0.0 | 0.00 | 0.74 | 0.08 | 99 | 1002.9 |
| 20260509021020 | 26 | 315 | 0.0 | 0.0 | 0.00 | 0.74 | 0.08 | 99 | 1002.9 |
| 20260509020521 | 26 | 315 | 0.0 | 0.0 | 0.00 | 0.74 | 0.08 | 99 | 1002.6 |
| 20260509020022 | 26 | 315 | 0.0 | 0.0 | 0.00 | 0.74 | 0.08 | 99 | 1002.6 |
| 20260509015521 | 25 | 315 | 0.0 | 0.0 | 0.00 | 0.74 | 0.08 | 99 | 1002.5 |
| 20260509015020 | 25 | 292 | 0.0 | 0.0 | 0.00 | 0.74 | 0.08 | 99 | 1002.5 |
| 20260509013520 | 25 | 292 | 0.0 | 0.0 | 0.00 | 0.74 | 0.08 | 99 | 1002.3 |
| 20260509013021 | 25 | 302 | 0.0 | 0.0 | 0.03 | 0.74 | 0.08 | 99 | 1002.2 |
| 20260509012521 | 25 | 292 | 0.0 | 0.0 | 0.03 | 0.74 | 0.08 | 99 | 1002.2 |
| 20260509012021 | 25 | 292 | 0.0 | 0.0 | 0.03 | 0.74 | 0.08 | 99 | 1002.2 |
| 20260509011520 | 24 | 292 | 0.0 | 0.0 | 0.03 | 0.74 | 0.08 | 99 | 1001.9 |
| 20260509011020 | 24 | 292 | 0.0 | 0.0 | 0.03 | 0.74 | 0.08 | 99 | 1001.9 |
| 20260509010020 | 24 | 292 | 0.0 | 0.0 | 0.03 | 0.74 | 0.08 | 99 | 1001.8 |
| 20260509005520 | 24 | 292 | 0.0 | 0.0 | 0.03 | 0.74 | 0.08 | 99 | 1001.9 |
| 20260509005021 | 24 | 292 | 0.0 | 0.0 | 0.03 | 0.74 | 0.08 | 99 | 1001.9 |
| 20260509004521 | 24 | 302 | 0.0 | 0.0 | 0.03 | 0.74 | 0.08 | 99 | 1001.9 |
| 20260509003521 | 24 | 310 | 0.0 | 0.0 | 0.03 | 0.76 | 0.08 | 99 | 1001.9 |
| 20260509003020 | 24 | 315 | 0.0 | 0.0 | 0.00 | 0.74 | 0.05 | 99 | 1001.9 |
| 20260509002520 | 24 | 299 | 0.0 | 0.0 | 0.00 | 0.74 | 0.05 | 99 | 1001.9 |
| 20260509002020 | 24 | 315 | 0.0 | 0.0 | 0.00 | 0.74 | 0.05 | 99 | 1001.9 |
| 20260509001520 | 24 | 315 | 0.0 | 0.0 | 0.00 | 0.74 | 0.05 | 99 | 1001.8 |
| 20260509000521 | 24 | 305 | 0.0 | 0.0 | 0.00 | 0.74 | 0.05 | 99 | 1001.8 |
| 20260509000020 | 24 | 303 | 0.0 | 0.0 | 0.00 | 0.74 | 0.05 | 99 | 1001.8 |
| 20260508235521 | 24 | 315 | 0.0 | 0.0 | 0.00 | 0.74 | 0.05 | 99 | 1001.8 |
| 20260508235020 | 24 | 292 | 0.0 | 0.0 | 0.00 | 0.74 | 0.05 | 99 | 1001.8 |
| 20260508234520 | 24 | 309 | 0.0 | 0.0 | 0.00 | 0.74 | 0.05 | 99 | 1001.8 |
| 20260508233521 | 24 | 315 | 0.0 | 0.0 | 0.00 | 0.74 | 0.05 | 99 | 1002.0 |
| 20260508233020 | 24 | 292 | 0.0 | 0.0 | 0.00 | 0.74 | 0.05 | 99 | 1002.1 |
| 20260508232521 | 24 | 292 | 0.0 | 0.0 | 0.00 | 0.74 | 0.05 | 99 | 1002.1 |
| 20260508232020 | 24 | 306 | 0.0 | 0.0 | 0.00 | 0.74 | 0.05 | 99 | 1002.1 |
| 20260508231521 | 24 | 304 | 0.0 | 0.0 | 0.00 | 0.74 | 0.05 | 99 | 1001.9 |
| 20260508231020 | 24 | 292 | 0.0 | 0.0 | 0.00 | 0.74 | 0.05 | 99 | 1001.9 |
| 20260508230521 | 24 | 292 | 0.0 | 0.0 | 0.00 | 0.74 | 0.05 | 99 | 1001.8 |
| 20260508225520 | 24 | 292 | 0.0 | 0.0 | 0.00 | 0.74 | 0.05 | 99 | 1001.7 |
| 20260508225020 | 24 | 292 | 0.0 | 0.0 | 0.00 | 0.74 | 0.05 | 99 | 1001.7 |
| 20260508224520 | 24 | 292 | 0.0 | 1.6 | 0.00 | 0.74 | 0.05 | 99 | 1001.7 |
| 20260508224021 | 24 | 292 | 1.6 | 3.2 | 0.00 | 0.74 | 0.05 | 99 | 1001.5 |
| 20260508223521 | 24 | 292 | 0.0 | 0.0 | 0.00 | 0.74 | 0.05 | 99 | 1001.5 |
| 20260508223020 | 24 | 292 | 0.0 | 1.6 | 0.00 | 0.74 | 0.05 | 99 | 1001.6 |
| 20260508222520 | 24 | 292 | 1.6 | 4.8 | 0.00 | 0.74 | 0.05 | 99 | 1001.6 |
| 20260508222020 | 24 | 292 | 0.0 | 0.0 | 0.00 | 0.74 | 0.05 | 99 | 1001.6 |
| 20260508221520 | 24 | 292 | 0.0 | 0.0 | 0.00 | 0.74 | 0.05 | 99 | 1001.6 |
| 20260508221020 | 24 | 297 | 0.0 | 0.0 | 0.00 | 0.74 | 0.05 | 99 | 1001.6 |
| 20260508220020 | 24 | 297 | 0.0 | 4.8 | 0.00 | 0.74 | 0.05 | 99 | 1001.6 |
| 20260508215020 | 24 | 315 | 0.0 | 0.0 | 0.00 | 0.74 | 0.05 | 99 | 1001.6 |
| 20260508214520 | 24 | 315 | 1.6 | 4.8 | 0.00 | 0.74 | 0.05 | 99 | 1001.6 |
| 20260508214020 | 24 | 292 | 1.6 | 3.2 | 0.03 | 0.74 | 0.05 | 99 | 1001.4 |
| 20260508213520 | 24 | 225 | 0.0 | 0.0 | 0.03 | 0.74 | 0.05 | 99 | 1001.4 |
| 20260508213020 | 24 | 225 | 0.0 | 0.0 | 0.03 | 0.74 | 0.05 | 99 | 1001.3 |
| 20260508212520 | 24 | 225 | 0.0 | 0.0 | 0.03 | 0.74 | 0.05 | 99 | 1001.3 |
| 20260508212020 | 24 | 225 | 0.0 | 0.0 | 0.03 | 0.74 | 0.05 | 99 | 1001.2 |
| 20260508211020 | 24 | 194 | 0.0 | 0.0 | 0.03 | 0.74 | 0.05 | 99 | 1001.2 |
| 20260508210520 | 24 | 202 | 0.0 | 0.0 | 0.03 | 0.74 | 0.05 | 99 | 1001.3 |
| 20260508210020 | 24 | 202 | 0.0 | 0.0 | 0.03 | 0.74 | 0.05 | 99 | 1001.3 |
| 20260508205520 | 24 | 202 | 0.0 | 0.0 | 0.03 | 0.74 | 0.05 | 99 | 1001.2 |
| 20260508205020 | 24 | 202 | 0.0 | 0.0 | 0.03 | 0.74 | 0.05 | 99 | 1001.2 |
| 20260508204520 | 24 | 202 | 0.0 | 0.0 | 0.03 | 0.74 | 0.05 | 99 | 1001.2 |
| 20260508204020 | 24 | 202 | 0.0 | 0.0 | 0.03 | 0.71 | 0.03 | 99 | 1001.4 |
| 20260508202520 | 25 | 180 | 0.0 | 0.0 | 0.03 | 0.71 | 0.03 | 99 | 1001.5 |
| 20260508202020 | 25 | 180 | 0.0 | 0.0 | 0.03 | 0.71 | 0.03 | 99 | 1001.5 |
| 20260508201521 | 25 | 180 | 0.0 | 0.0 | 0.03 | 0.71 | 0.03 | 99 | 1001.6 |
| 20260508201020 | 24 | 180 | 0.0 | 0.0 | 0.03 | 0.71 | 0.03 | 99 | 1001.6 |
| 20260508200520 | 24 | 158 | 0.0 | 0.0 | 0.03 | 0.71 | 0.03 | 99 | 1001.7 |
| 20260508195019 | 24 | 158 | 0.0 | 0.0 | 0.03 | 0.71 | 0.03 | 99 | 1001.7 |
| 20260508194520 | 24 | 135 | 0.0 | 0.0 | 0.03 | 0.71 | 0.03 | 99 | 1001.7 |
| 20260508194020 | 24 | 135 | 0.0 | 0.0 | 0.00 | 0.69 | 0.00 | 99 | 1001.8 |
| 20260508193520 | 24 | 135 | 0.0 | 0.0 | 0.00 | 0.69 | 0.00 | 99 | 1001.8 |
| 20260508193020 | 25 | 135 | 0.0 | 0.0 | 0.00 | 0.69 | 0.00 | 99 | 1002.1 |
| 20260508192519 | 25 | 135 | 0.0 | 0.0 | 0.00 | 0.69 | 0.00 | 99 | 1002.1 |
| 20260508192020 | 25 | 135 | 0.0 | 0.0 | 0.00 | 0.69 | 0.00 | 99 | 1002.1 |
| 20260508191520 | 25 | 158 | 0.0 | 0.0 | 0.00 | 0.69 | 0.00 | 99 | 1002.4 |
| 20260508191020 | 25 | 158 | 0.0 | 0.0 | 0.00 | 0.69 | 0.00 | 99 | 1002.4 |
| 20260508190520 | 25 | 158 | 0.0 | 0.0 | 0.00 | 0.69 | 0.00 | 99 | 1002.7 |
| 20260508190019 | 25 | 158 | 0.0 | 0.0 | 0.00 | 0.69 | 0.00 | 99 | 1002.7 |
| 20260508185520 | 25 | 158 | 0.0 | 0.0 | 0.00 | 0.69 | 0.00 | 99 | 1002.9 |
| 20260508185020 | 25 | 158 | 0.0 | 0.0 | 0.00 | 0.69 | 0.00 | 99 | 1002.9 |
| 20260508184519 | 25 | 158 | 0.0 | 0.0 | 0.00 | 0.69 | 0.00 | 99 | 1002.9 |
| 20260508184020 | 25 | 158 | 0.0 | 0.0 | 0.00 | 0.69 | 0.00 | 99 | 1002.8 |
| 20260508183521 | 25 | 158 | 0.0 | 0.0 | 0.00 | 0.69 | 0.00 | 99 | 1002.8 |
| 20260508183020 | 25 | 158 | 0.0 | 0.0 | 0.00 | 0.69 | 0.00 | 99 | 1002.8 |
| 20260508182520 | 25 | 158 | 0.0 | 0.0 | 0.00 | 0.69 | 0.69 | 99 | 1002.8 |
| 20260508182020 | 25 | 158 | 0.0 | 0.0 | 0.00 | 0.69 | 0.69 | 99 | 1002.8 |
| 20260508181520 | 25 | 158 | 0.0 | 0.0 | 0.00 | 0.69 | 0.69 | 99 | 1003.1 |
| 20260508181020 | 25 | 158 | 0.0 | 0.0 | 0.00 | 0.69 | 0.69 | 99 | 1003.1 |
| 20260508180520 | 25 | 135 | 0.0 | 0.0 | 0.00 | 0.69 | 0.69 | 99 | 1003.1 |
| 20260508180020 | 25 | 135 | 0.0 | 0.0 | 0.00 | 0.69 | 0.69 | 99 | 1003.1 |
| 20260508175519 | 25 | 135 | 0.0 | 0.0 | 0.00 | 0.69 | 0.69 | 99 | 1003.4 |
| 20260508174020 | 25 | 90 | 0.0 | 0.0 | 0.00 | 0.69 | 0.69 | 99 | 1004.2 |
| 20260508173519 | 25 | 112 | 0.0 | 1.6 | 0.00 | 0.69 | 0.69 | 99 | 1004.2 |
| 20260508172520 | 24 | 90 | 0.0 | 0.0 | 0.00 | 0.69 | 0.69 | 99 | 1004.0 |
| 20260508172020 | 24 | 90 | 0.0 | 0.0 | 0.00 | 0.69 | 0.69 | 99 | 1004.0 |
| 20260508171519 | 24 | 90 | 0.0 | 0.0 | 0.00 | 0.69 | 0.69 | 99 | 1003.7 |
| 20260508171020 | 24 | 90 | 0.0 | 0.0 | 0.00 | 0.69 | 0.69 | 99 | 1003.7 |
| 20260508170519 | 24 | 90 | 0.0 | 0.0 | 0.00 | 0.69 | 0.69 | 99 | 1003.8 |
| 20260508170020 | 24 | 90 | 0.0 | 0.0 | 0.00 | 0.69 | 0.69 | 99 | 1003.8 |
| 20260508165519 | 25 | 90 | 0.0 | 0.0 | 0.00 | 0.69 | 0.69 | 99 | 1003.8 |
| 20260508165020 | 25 | 108 | 0.0 | 0.0 | 0.00 | 0.69 | 0.69 | 99 | 1003.8 |
| 20260508164520 | 25 | 112 | 0.0 | 0.0 | 0.00 | 0.69 | 0.69 | 99 | 1003.8 |
| 20260508164020 | 25 | 90 | 0.0 | 0.0 | 0.03 | 0.69 | 0.69 | 99 | 1003.7 |
| 20260508163520 | 25 | 90 | 0.0 | 0.0 | 0.03 | 0.69 | 0.69 | 99 | 1003.7 |
| 20260508163020 | 25 | 112 | 0.0 | 0.0 | 0.05 | 0.69 | 0.69 | 99 | 1003.6 |
| 20260508162519 | 25 | 112 | 0.0 | 0.0 | 0.08 | 0.69 | 0.69 | 99 | 1003.6 |
| 20260508162020 | 25 | 90 | 0.0 | 0.0 | 0.08 | 0.69 | 0.69 | 99 | 1003.5 |
| 20260508161519 | 25 | 90 | 0.0 | 0.0 | 0.10 | 0.69 | 0.69 | 99 | 1003.5 |
| 20260508161020 | 24 | 90 | 0.0 | 0.0 | 0.10 | 0.69 | 0.69 | 99 | 1003.5 |
| 20260508160519 | 24 | 90 | 0.0 | 0.0 | 0.10 | 0.69 | 0.69 | 99 | 1003.5 |
| 20260508160020 | 24 | 112 | 0.0 | 0.0 | 0.10 | 0.69 | 0.69 | 99 | 1003.5 |
| 20260508155519 | 25 | 112 | 0.0 | 0.0 | 0.13 | 0.69 | 0.69 | 99 | 1003.4 |
| 20260508155020 | 25 | 112 | 0.0 | 0.0 | 0.13 | 0.69 | 0.69 | 99 | 1003.4 |
| 20260508154519 | 25 | 112 | 0.0 | 0.0 | 0.13 | 0.69 | 0.69 | 99 | 1003.4 |
| 20260508154019 | 25 | 112 | 0.0 | 0.0 | 0.10 | 0.66 | 0.66 | 99 | 1003.2 |
| 20260508153520 | 25 | 112 | 0.0 | 0.0 | 0.13 | 0.66 | 0.66 | 99 | 1003.2 |
| 20260508153020 | 25 | 112 | 0.0 | 0.0 | 0.13 | 0.64 | 0.64 | 99 | 1003.0 |
| 20260508152519 | 25 | 112 | 0.0 | 0.0 | 0.13 | 0.66 | 0.61 | 99 | 1003.0 |
| 20260508151520 | 25 | 112 | 0.0 | 0.0 | 0.23 | 1.09 | 0.58 | 99 | 1002.7 |
| 20260508151021 | 25 | 112 | 0.0 | 0.0 | 0.33 | 1.32 | 0.58 | 99 | 1002.7 |
| 20260508150519 | 25 | 112 | 0.0 | 0.0 | 0.36 | 1.50 | 0.58 | 99 | 1002.7 |
| 20260508150020 | 25 | 112 | 0.0 | 0.0 | 0.36 | 1.50 | 0.58 | 99 | 1002.7 |
| 20260508145519 | 24 | 112 | 0.0 | 0.0 | 0.33 | 1.47 | 0.56 | 99 | 1002.9 |
| 20260508145019 | 24 | 112 | 0.0 | 0.0 | 0.33 | 1.47 | 0.56 | 99 | 1002.9 |
| 20260508144519 | 24 | 112 | 0.0 | 0.0 | 0.33 | 1.47 | 0.56 | 99 | 1002.9 |
| 20260508144019 | 24 | 98 | 0.0 | 1.6 | 0.33 | 1.47 | 0.56 | 99 | 1003.1 |
| 20260508143520 | 25 | 90 | 0.0 | 0.0 | 0.30 | 1.45 | 0.53 | 98 | 1003.1 |
| 20260508143019 | 25 | 90 | 0.0 | 0.0 | 0.28 | 1.42 | 0.51 | 98 | 1002.8 |
| 20260508142519 | 25 | 90 | 3.2 | 8.0 | 0.25 | 1.40 | 0.48 | 97 | 1002.8 |
| 20260508142020 | 25 | 90 | 4.8 | 8.0 | 0.20 | 1.35 | 0.43 | 95 | 1002.7 |
| 20260508141019 | 26 | 65 | 9.7 | 16.1 | 0.03 | 1.17 | 0.25 | 91 | 1002.7 |
| 20260508140520 | 27 | 90 | 11.3 | 16.1 | 0.00 | 1.14 | 0.23 | 84 | 1002.3 |
| 20260508140019 | 28 | 64 | 9.7 | 20.9 | 0.00 | 1.14 | 0.23 | 80 | 1002.3 |
| 20260508135519 | 28 | 45 | 4.8 | 9.7 | 0.00 | 1.14 | 0.23 | 81 | 1001.9 |
| 20260508135019 | 28 | 34 | 4.8 | 14.5 | 0.00 | 1.14 | 0.23 | 83 | 1001.9 |
| 20260508134519 | 28 | 112 | 6.4 | 9.7 | 0.00 | 1.14 | 0.23 | 87 | 1001.9 |
| 20260508133519 | 29 | 180 | 0.0 | 0.0 | 0.00 | 1.14 | 0.23 | 89 | 1001.8 |
| 20260508133020 | 29 | 180 | 0.0 | 0.0 | 0.00 | 1.14 | 0.23 | 89 | 1001.2 |
| 20260508132519 | 29 | 180 | 0.0 | 0.0 | 0.00 | 1.14 | 0.23 | 89 | 1001.2 |
| 20260508132020 | 29 | 180 | 0.0 | 0.0 | 0.00 | 1.14 | 0.23 | 89 | 1001.2 |
| 20260508130519 | 29 | 193 | 1.6 | 3.2 | 0.00 | 1.14 | 0.23 | 88 | 1000.4 |
| 20260508130019 | 29 | 202 | 1.6 | 4.8 | 0.00 | 1.14 | 0.23 | 88 | 1000.4 |
| 20260508125519 | 30 | 184 | 1.6 | 4.8 | 0.00 | 1.14 | 0.23 | 88 | 1000.4 |
| 20260508125019 | 30 | 180 | 3.2 | 9.7 | 0.00 | 1.14 | 0.23 | 87 | 1000.4 |
| 20260508124519 | 30 | 191 | 3.2 | 8.0 | 0.00 | 1.14 | 0.23 | 86 | 1000.4 |
| 20260508124019 | 30 | 202 | 3.2 | 4.8 | 0.00 | 1.14 | 0.23 | 86 | 1000.4 |
| 20260508123520 | 30 | 202 | 4.8 | 11.3 | 0.00 | 1.14 | 0.23 | 86 | 1000.4 |
| 20260508123019 | 30 | 192 | 4.8 | 9.7 | 0.00 | 1.14 | 0.23 | 86 | 1000.1 |
| 20260508122519 | 30 | 180 | 3.2 | 4.8 | 0.00 | 1.14 | 0.23 | 85 | 1000.1 |
| 20260508122019 | 30 | 180 | 3.2 | 4.8 | 0.00 | 1.14 | 0.23 | 84 | 1000.1 |
| 20260508121519 | 30 | 194 | 1.6 | 8.0 | 0.00 | 1.14 | 0.23 | 84 | 1000.1 |
| 20260508120019 | 30 | 202 | 4.8 | 8.0 | 0.00 | 1.14 | 0.23 | 83 | 1000.0 |
| 20260508115518 | 30 | 200 | 4.8 | 9.7 | 0.00 | 1.14 | 0.23 | 83 | 1000.0 |
| 20260508115019 | 31 | 183 | 3.2 | 9.7 | 0.00 | 1.14 | 0.23 | 83 | 1000.0 |
| 20260508114519 | 31 | 180 | 0.0 | 8.0 | 0.00 | 1.14 | 0.23 | 83 | 1000.0 |
| 20260508114019 | 31 | 158 | 3.2 | 8.0 | 0.00 | 1.14 | 0.23 | 84 | 999.9 |
| 20260508113519 | 31 | 165 | 4.8 | 8.0 | 0.00 | 1.14 | 0.23 | 83 | 999.9 |
| 20260508113019 | 31 | 192 | 4.8 | 9.7 | 0.00 | 1.14 | 0.23 | 83 | 999.6 |
| 20260508112518 | 31 | 170 | 3.2 | 4.8 | 0.00 | 1.14 | 0.23 | 83 | 999.6 |
| 20260508112019 | 31 | 158 | 4.8 | 9.7 | 0.00 | 1.14 | 0.23 | 83 | 999.5 |
| 20260508111519 | 31 | 180 | 4.8 | 8.0 | 0.00 | 1.14 | 0.23 | 82 | 999.4 |
| 20260508111019 | 31 | 179 | 3.2 | 8.0 | 0.00 | 1.14 | 0.23 | 82 | 999.4 |
| 20260508110019 | 31 | 175 | 3.2 | 8.0 | 0.00 | 1.14 | 0.23 | 79 | 999.4 |
| 20260508105519 | 32 | 180 | 3.2 | 8.0 | 0.00 | 1.14 | 0.23 | 80 | 999.2 |
| 20260508105019 | 32 | 180 | 8.0 | 9.7 | 0.00 | 1.14 | 0.23 | 78 | 999.2 |
| 20260508104519 | 31 | 180 | 4.8 | 9.7 | 0.00 | 1.14 | 0.23 | 80 | 999.2 |
| 20260508104019 | 31 | 158 | 3.2 | 4.8 | 0.00 | 1.14 | 0.23 | 81 | 999.2 |
| 20260508103519 | 31 | 158 | 3.2 | 8.0 | 0.00 | 1.14 | 0.23 | 81 | 999.2 |
| 20260508102519 | 31 | 158 | 0.0 | 9.7 | 0.00 | 1.14 | 0.23 | 79 | 999.3 |
| 20260508101518 | 31 | 128 | 0.0 | 0.0 | 0.00 | 1.14 | 0.23 | 81 | 999.5 |
| 20260508101022 | 32 | 112 | 0.0 | 0.0 | 0.00 | 1.14 | 0.23 | 82 | 999.5 |
| 20260508100519 | 31 | 112 | 0.0 | 0.0 | 0.00 | 1.14 | 0.23 | 81 | 999.7 |
| 20260508100019 | 31 | 112 | 0.0 | 0.0 | 0.00 | 1.17 | 0.23 | 82 | 999.7 |
| 20260508095528 | 31 | 112 | 0.0 | 4.8 | 0.03 | 1.17 | 0.23 | 85 | 1000.0 |
| 20260508095019 | 31 | 102 | 3.2 | 8.0 | 0.03 | 1.17 | 0.23 | 84 | 1000.1 |
| 20260508094520 | 31 | 54 | 0.0 | 0.0 | 0.05 | 1.17 | 0.23 | 85 | 1000.1 |
| 20260508094019 | 30 | 45 | 0.0 | 0.0 | 0.10 | 1.17 | 0.23 | 90 | 1000.1 |
| 20260508093519 | 30 | 45 | 0.0 | 0.0 | 0.18 | 1.17 | 0.23 | 88 | 1000.1 |
| 20260508093018 | 30 | 45 | 0.0 | 0.0 | 0.20 | 1.17 | 0.23 | 92 | 1000.1 |
| 20260508092019 | 30 | 45 | 0.0 | 0.0 | 0.20 | 1.17 | 0.23 | 92 | 1000.1 |
| 20260508091518 | 29 | 45 | 0.0 | 1.6 | 0.20 | 1.17 | 0.23 | 94 | 1000.2 |
| 20260508091019 | 30 | 45 | 0.0 | 0.0 | 0.20 | 1.17 | 0.23 | 94 | 1000.2 |
| 20260508090518 | 29 | 45 | 0.0 | 0.0 | 0.20 | 1.17 | 0.23 | 93 | 1000.6 |
| 20260508090019 | 29 | 45 | 0.0 | 0.0 | 0.20 | 1.17 | 0.23 | 95 | 1000.6 |
| 20260508085519 | 29 | 64 | 0.0 | 1.6 | 0.18 | 1.14 | 0.20 | 94 | 1000.8 |
| 20260508085019 | 29 | 90 | 0.0 | 0.0 | 0.18 | 1.14 | 0.20 | 90 | 1000.8 |
| 20260508084518 | 29 | 90 | 0.0 | 0.0 | 0.15 | 1.12 | 0.18 | 93 | 1000.8 |
| 20260508084019 | 29 | 90 | 0.0 | 3.2 | 0.10 | 1.07 | 0.13 | 89 | 1001.0 |
| 20260508083518 | 29 | 90 | 3.2 | 4.8 | 0.03 | 0.99 | 0.05 | 87 | 1001.0 |
| 20260508083019 | 29 | 90 | 4.8 | 4.8 | 0.00 | 0.97 | 0.03 | 86 | 1001.0 |
| 20260508082518 | 30 | 90 | 3.2 | 9.7 | 0.00 | 0.97 | 0.03 | 84 | 1001.0 |
| 20260508081519 | 31 | 83 | 8.0 | 14.5 | 0.00 | 0.97 | 0.03 | 76 | 1001.0 |
| 20260508081018 | 33 | 81 | 6.4 | 12.9 | 0.00 | 0.97 | 0.03 | 70 | 1001.0 |
| 20260508080519 | 35 | 94 | 4.8 | 9.7 | 0.00 | 0.97 | 0.03 | 63 | 1001.0 |
| 20260508075518 | 35 | 158 | 1.6 | 8.0 | 0.00 | 0.97 | 0.03 | 63 | 1001.2 |
| 20260508074518 | 36 | 180 | 8.0 | 11.3 | 0.00 | 0.97 | 0.03 | 60 | 1001.2 |
| 20260508074020 | 36 | 202 | 3.2 | 9.7 | 0.00 | 0.97 | 0.03 | 59 | 1001.4 |
| 20260508073519 | 37 | 188 | 3.2 | 4.8 | 0.00 | 0.97 | 0.03 | 59 | 1001.4 |
| 20260508073019 | 36 | 181 | 3.2 | 8.0 | 0.00 | 0.97 | 0.03 | 61 | 1001.5 |
| 20260508072519 | 35 | 190 | 4.8 | 8.0 | 0.00 | 0.97 | 0.03 | 63 | 1001.5 |
| 20260508072018 | 35 | 202 | 3.2 | 8.0 | 0.00 | 0.97 | 0.03 | 63 | 1001.5 |
| 20260508071518 | 35 | 196 | 8.0 | 11.3 | 0.00 | 0.97 | 0.03 | 64 | 1001.5 |
| 20260508071019 | 34 | 202 | 6.4 | 11.3 | 0.00 | 0.97 | 0.03 | 67 | 1001.5 |
| 20260508070018 | 34 | 193 | 4.8 | 9.7 | 0.00 | 0.97 | 0.03 | 67 | 1001.6 |
| 20260508065518 | 34 | 180 | 4.8 | 9.7 | 0.00 | 0.97 | 0.03 | 66 | 1001.8 |
| 20260508065020 | 34 | 202 | 1.6 | 9.7 | 0.00 | 0.97 | 0.03 | 68 | 1001.8 |
| 20260508064518 | 33 | 180 | 4.8 | 9.7 | 0.00 | 0.97 | 0.03 | 68 | 1001.8 |
| 20260508064018 | 33 | 202 | 6.4 | 14.5 | 0.00 | 0.97 | 0.03 | 67 | 1001.8 |
| 20260508063018 | 34 | 186 | 8.0 | 12.9 | 0.00 | 0.97 | 0.03 | 65 | 1002.0 |
| 20260508062018 | 37 | 202 | 4.8 | 11.3 | 0.00 | 0.97 | 0.03 | 60 | 1002.0 |
| 20260508061519 | 36 | 202 | 4.8 | 12.9 | 0.00 | 0.97 | 0.03 | 60 | 1002.0 |
| 20260508061018 | 37 | 202 | 4.8 | 9.7 | 0.00 | 0.97 | 0.03 | 60 | 1002.0 |
| 20260508060519 | 37 | 202 | 4.8 | 9.7 | 0.00 | 0.97 | 0.03 | 58 | 1002.2 |
| 20260508060019 | 36 | 191 | 8.0 | 12.9 | 0.00 | 0.97 | 0.03 | 59 | 1002.2 |
| 20260508055518 | 37 | 270 | 4.8 | 9.7 | 0.00 | 0.97 | 0.03 | 60 | 1002.3 |